TimeCDT,TemperatureF,Dew PointF,Humidity,Sea Level PressureIn,VisibilityMPH,Wind Direction,Wind SpeedMPH,Gust SpeedMPH,PrecipitationIn,Events,Conditions,WindDirDegrees,DateUTC
12:53 AM,48.0,46.9,96,30.22,7.0,North,6.9,-,0.04,Rain,Light Rain,10,2012-10-08 05:53:00
1:03 AM,48.2,46.4,93,30.23,9.0,North,5.8,-,0.00,,Overcast,350,2012-10-08 06:03:00
1:40 AM,48.2,46.4,93,30.23,7.0,NNE,5.8,-,0.01,Rain,Light Rain,20,2012-10-08 06:40:00
1:53 AM,48.0,46.9,96,30.23,10.0,NNE,3.5,-,0.01,,Overcast,20,2012-10-08 06:53:00
2:09 AM,48.2,46.4,93,30.23,10.0,NNE,4.6,-,N/A,,Overcast,20,2012-10-08 07:09:00
2:53 AM,48.0,46.9,96,30.22,8.0,NE,4.6,-,0.00,,Overcast,40,2012-10-08 07:53:00
3:53 AM,48.0,46.9,96,30.21,10.0,ENE,4.6,-,N/A,,Overcast,60,2012-10-08 08:53:00
4:12 AM,48.2,46.4,93,30.21,10.0,ENE,3.5,-,N/A,,Overcast,60,2012-10-08 09:12:00
4:35 AM,48.2,46.4,93,30.21,10.0,Variable,3.5,-,N/A,,Overcast,0,2012-10-08 09:35:00
4:53 AM,48.0,46.9,96,30.21,10.0,Calm,Calm,-,N/A,,Overcast,0,2012-10-08 09:53:00
5:01 AM,48.2,46.4,93,30.22,10.0,NNE,3.5,-,N/A,,Overcast,30,2012-10-08 10:01:00
5:39 AM,48.2,46.4,93,30.22,10.0,Calm,Calm,-,N/A,,Overcast,0,2012-10-08 10:39:00
5:53 AM,48.9,46.9,93,30.22,10.0,Calm,Calm,-,N/A,,Overcast,0,2012-10-08 10:53:00
6:53 AM,48.0,46.0,93,30.24,10.0,NE,3.5,-,N/A,,Overcast,50,2012-10-08 11:53:00
7:34 AM,48.2,46.4,93,30.24,10.0,NE,4.6,-,N/A,,Overcast,40,2012-10-08 12:34:00
7:53 AM,48.0,46.0,93,30.24,10.0,NE,3.5,-,N/A,,Overcast,40,2012-10-08 12:53:00
8:53 AM,50.0,44.1,80,30.26,10.0,NNE,6.9,-,N/A,,Scattered Clouds,20,2012-10-08 13:53:00
9:53 AM,52.0,43.0,71,30.27,10.0,NE,8.1,-,N/A,,Clear,40,2012-10-08 14:53:00
10:53 AM,55.0,44.1,67,30.27,10.0,East,6.9,-,N/A,,Partly Cloudy,90,2012-10-08 15:53:00
11:53 AM,57.9,43.0,58,30.25,10.0,NE,5.8,-,N/A,,Scattered Clouds,40,2012-10-08 16:53:00
12:53 PM,60.1,44.1,55,30.23,10.0,Variable,5.8,-,N/A,,Partly Cloudy,0,2012-10-08 17:53:00
1:53 PM,60.1,44.1,55,30.20,10.0,Calm,Calm,-,N/A,,Scattered Clouds,0,2012-10-08 18:53:00
2:53 PM,60.1,43.0,53,30.17,10.0,East,4.6,-,N/A,,Mostly Cloudy,90,2012-10-08 19:53:00
3:53 PM,61.0,44.1,54,30.17,10.0,North,3.5,-,N/A,,Scattered Clouds,360,2012-10-08 20:53:00
4:53 PM,62.1,44.1,52,30.14,10.0,Variable,5.8,-,N/A,,Scattered Clouds,0,2012-10-08 21:53:00
5:53 PM,61.0,44.1,54,30.13,10.0,East,5.8,-,N/A,,Clear,80,2012-10-08 22:53:00
6:53 PM,55.9,45.0,67,30.13,10.0,ENE,3.5,-,N/A,,Clear,70,2012-10-08 23:53:00
7:53 PM,53.1,46.9,80,30.14,10.0,East,3.5,-,N/A,,Clear,80,2012-10-09 00:53:00
8:53 PM,51.1,46.0,83,30.16,10.0,ESE,4.6,-,N/A,,Clear,110,2012-10-09 01:53:00
9:53 PM,50.0,46.0,86,30.16,10.0,ESE,3.5,-,N/A,,Clear,120,2012-10-09 02:53:00
10:53 PM,50.0,46.0,86,30.16,10.0,SE,3.5,-,N/A,,Clear,140,2012-10-09 03:53:00
11:53 PM,48.0,46.0,93,30.15,10.0,Calm,Calm,-,N/A,,Clear,0,2012-10-09 04:53:00